,,,PA_Meas_PMT16A,,PR_Meas_QMR101_102,,RH_Meas_QMH101,,SR_Meas_QMS101,,TA_Meas_QMH101,,GenWind,,GenWind,
date,time,status,PA,status,PR,status,RH,status,SR,status,TA,status,DirAvg,status,SpdAvg,
2008-10-03, 00:00:05,VALID,1006.04,VALID,0,VALID,90.982,VALID,0,VALID,24.2115,VALID,76,VALID,0.775781,
2008-10-03, 00:01:05,VALID,1006.06,VALID,0,VALID,90.9134,VALID,0,VALID,24.231,VALID,111,VALID,0.986719,
2008-10-03, 00:02:05,VALID,1006.07,VALID,0,VALID,91.2033,VALID,0,VALID,24.2699,VALID,113,VALID,1.0375,
2008-10-03, 00:03:05,VALID,1006.13,VALID,0,VALID,91.2338,VALID,0,VALID,24.2291,VALID,99,VALID,1.00859,
2008-10-03, 00:04:05,VALID,1006.13,VALID,0,VALID,90.9057,VALID,0,VALID,24.2291,VALID,115,VALID,0.960938,
2008-10-03, 00:05:05,VALID,1006.14,VALID,0,VALID,90.8142,VALID,0,VALID,24.2486,VALID,129,VALID,1.15625,
2008-10-03, 00:06:05,VALID,1006.1,VALID,0,VALID,90.5624,VALID,0,VALID,24.3088,VALID,128,VALID,1.09492,
2008-10-03, 00:07:05,VALID,1006.1,VALID,0,VALID,90.6692,VALID,0,VALID,24.3283,VALID,122,VALID,0.78125,
2008-10-03, 00:08:05,VALID,1006.14,VALID,0,VALID,90.9057,VALID,0,VALID,24.3478,VALID,138,VALID,0.619922,
2008-10-03, 00:09:05,VALID,1006.14,VALID,0,VALID,91.0278,VALID,0,VALID,24.3088,VALID,163,VALID,0.675781,
2008-10-03, 00:10:05,VALID,1006.18,VALID,0,VALID,91.2033,VALID,0,VALID,24.3088,VALID,164,VALID,0.594922,
2008-10-03, 00:11:05,VALID,1006.16,VALID,0,VALID,91.3864,VALID,0,VALID,24.2486,VALID,106,VALID,0.403906,
2008-10-03, 00:12:05,VALID,1006.19,VALID,0,VALID,91.8288,VALID,0,VALID,24.2504,VALID,31,VALID,0.916016,
2008-10-03, 00:13:05,VALID,1006.19,VALID,0,VALID,92.1416,VALID,0,VALID,24.2097,VALID,19,VALID,0.969922,
2008-10-03, 00:14:05,VALID,1006.18,VALID,0,VALID,92.462,VALID,0,VALID,24.2097,VALID,360,VALID,1.07422,
2008-10-03, 00:15:05,VALID,1006.16,VALID,0,VALID,92.5993,VALID,0,VALID,24.1513,VALID,350,VALID,0.928125,
2008-10-03, 00:16:05,VALID,1006.16,VALID,0.5,VALID,92.7138,VALID,0,VALID,24.0947,VALID,359,VALID,0.928906,
2008-10-03, 00:17:05,VALID,1006.17,VALID,0,VALID,92.9655,VALID,0,VALID,24.0576,VALID,14,VALID,0.611328,
2008-10-03, 00:18:05,VALID,1006.19,VALID,0,VALID,93.1791,VALID,0,VALID,24.0363,VALID,70,VALID,0.394531,
2008-10-03, 00:19:05,VALID,1006.22,VALID,0,VALID,93.0266,VALID,0,VALID,24.0168,VALID,72,VALID,1.23203,
2008-10-03, 00:20:05,VALID,1006.22,VALID,0,VALID,93.08,VALID,0,VALID,24.0168,VALID,60,VALID,0.75625,
2008-10-03, 00:21:05,VALID,1006.22,VALID,0,VALID,92.7977,VALID,0,VALID,24.015,VALID,67,VALID,1.13672,
2008-10-03, 00:22:05,VALID,1006.19,VALID,0,VALID,92.5002,VALID,0,VALID,24.0345,VALID,83,VALID,1.2043,
2008-10-03, 00:23:05,VALID,1006.21,VALID,0,VALID,92.2561,VALID,0,VALID,24.0929,VALID,76,VALID,0.844922,
2008-10-03, 00:24:05,VALID,1006.2,VALID,0,VALID,92.2332,VALID,0,VALID,24.1123,VALID,66,VALID,0.662891,
2008-10-03, 00:25:05,VALID,1006.19,VALID,0,VALID,91.8441,VALID,0.100563,VALID,24.1123,VALID,79,VALID,1.2082,
2008-10-03, 00:26:05,VALID,1006.18,VALID,0,VALID,91.7068,VALID,0,VALID,24.1318,VALID,87,VALID,0.883594,
2008-10-03, 00:27:05,VALID,1006.19,VALID,0,VALID,91.7525,VALID,0,VALID,24.1513,VALID,98,VALID,0.981641,
2008-10-03, 00:28:05,VALID,1006.17,VALID,0,VALID,91.5847,VALID,0,VALID,24.1513,VALID,111,VALID,0.817578,
2008-10-03, 00:29:05,VALID,1006.15,VALID,0,VALID,91.6305,VALID,0,VALID,24.1707,VALID,78,VALID,0.423438,
2008-10-03, 00:30:05,VALID,1006.17,VALID,0,VALID,91.6,VALID,0,VALID,24.1513,VALID,71,VALID,0.6125,
2008-10-03, 00:31:05,VALID,1006.14,VALID,0,VALID,91.7144,VALID,0.100563,VALID,24.1513,VALID,29,VALID,0.729688,
2008-10-03, 00:32:05,VALID,1006.1,VALID,0,VALID,91.7068,VALID,0,VALID,24.1318,VALID,16,VALID,1.49297,
2008-10-03, 00:33:05,VALID,1006.09,VALID,0,VALID,91.867,VALID,0,VALID,24.1513,VALID,34,VALID,1.43633,
2008-10-03, 00:34:05,VALID,1006.06,VALID,0,VALID,91.9738,VALID,0,VALID,24.1707,VALID,40,VALID,1.79336,
2008-10-03, 00:35:05,VALID,1006.09,VALID,0,VALID,92.073,VALID,0,VALID,24.2504,VALID,32,VALID,1.69062,
2008-10-03, 00:36:05,VALID,1006.08,VALID,0,VALID,92.1721,VALID,0,VALID,24.3088,VALID,20,VALID,1.77031,
2008-10-03, 00:37:05,VALID,1006.06,VALID,0,VALID,92.0653,VALID,0,VALID,24.3459,VALID,37,VALID,1.08477,
2008-10-03, 00:38:05,VALID,1006.09,VALID,0,VALID,92.0958,VALID,0,VALID,24.3867,VALID,35,VALID,0.64375,
2008-10-03, 00:39:05,VALID,1006.1,VALID,0,VALID,91.7297,VALID,0,VALID,24.3867,VALID,52,VALID,2.20586,
2008-10-03, 00:40:05,VALID,1006.09,VALID,0,VALID,91.6763,VALID,0,VALID,24.3867,VALID,55,VALID,1.0375,
2008-10-03, 00:41:05,VALID,1006.05,VALID,0,VALID,91.5237,VALID,0,VALID,24.3459,VALID,61,VALID,1.37852,
2008-10-03, 00:42:05,VALID,1006.01,VALID,0,VALID,91.5771,VALID,0,VALID,24.3478,VALID,71,VALID,1.90937,
2008-10-03, 00:43:05,VALID,1006.03,VALID,0,VALID,91.7373,VALID,0,VALID,24.3459,VALID,25,VALID,1.09102,
2008-10-03, 00:44:05,VALID,1006.01,VALID,0,VALID,91.6229,VALID,0,VALID,24.3283,VALID,48,VALID,1.99023,
2008-10-03, 00:45:05,VALID,1005.96,VALID,0,VALID,91.6534,VALID,0,VALID,24.3088,VALID,47,VALID,0.841016,
2008-10-03, 00:46:05,VALID,1005.92,VALID,0,VALID,91.8441,VALID,0,VALID,24.2875,VALID,56,VALID,0.921484,
2008-10-03, 00:47:05,VALID,1005.91,VALID,0,VALID,91.9433,VALID,0,VALID,24.3088,VALID,35,VALID,1.29492,
2008-10-03, 00:48:05,VALID,1005.83,VALID,0,VALID,91.9509,VALID,0,VALID,24.3478,VALID,16,VALID,1.22812,
2008-10-03, 00:49:05,VALID,1005.81,VALID,0,VALID,92.0806,VALID,0,VALID,24.3673,VALID,39,VALID,1.37227,
2008-10-03, 00:50:05,VALID,1005.76,VALID,0,VALID,92.0272,VALID,0,VALID,24.447,VALID,35,VALID,0.998047,
2008-10-03, 00:51:05,VALID,1005.77,VALID,0,VALID,92.0653,VALID,0,VALID,24.4451,VALID,51,VALID,1.14766,
2008-10-03, 00:52:05,VALID,1005.73,VALID,0,VALID,91.9662,VALID,0,VALID,24.4646,VALID,68,VALID,0.905859,
2008-10-03, 00:53:05,VALID,1005.69,VALID,0,VALID,91.8975,VALID,0,VALID,24.4646,VALID,52,VALID,0.639844,
2008-10-03, 00:54:05,VALID,1005.62,VALID,0,VALID,91.9433,VALID,0,VALID,24.4841,VALID,80,VALID,0.743359,
2008-10-03, 00:55:05,VALID,1005.56,VALID,0,VALID,91.9204,VALID,0,VALID,24.4841,VALID,28,VALID,1.08633,
2008-10-03, 00:56:05,VALID,1005.5,VALID,0,VALID,91.9128,VALID,0,VALID,24.4841,VALID,29,VALID,0.509375,
2008-10-03, 00:57:05,VALID,1005.45,VALID,0,VALID,92.0119,VALID,0,VALID,24.5035,VALID,84,VALID,0.401563,
2008-10-03, 00:58:05,VALID,1005.36,VALID,0,VALID,91.9356,VALID,0,VALID,24.5035,VALID,50,VALID,0.727344,
2008-10-03, 00:59:05,VALID,1005.33,VALID,0,VALID,91.9051,VALID,0,VALID,24.523,VALID,80,VALID,1.65977,
2008-10-03, 01:00:05,VALID,1005.3,VALID,0,VALID,91.8975,VALID,0,VALID,24.523,VALID,75,VALID,0.927344,
2008-10-03, 01:01:05,VALID,1005.28,VALID,0,VALID,91.8746,VALID,0,VALID,24.5017,VALID,93,VALID,0.93125,
2008-10-03, 01:02:05,VALID,1005.24,VALID,0,VALID,91.7449,VALID,0,VALID,24.5212,VALID,67,VALID,1.28047,
2008-10-03, 01:03:05,VALID,1005.21,VALID,0,VALID,91.8059,VALID,0,VALID,24.5425,VALID,41,VALID,1.24336,
2008-10-03, 01:04:05,VALID,1005.2,VALID,0,VALID,91.7983,VALID,0,VALID,24.562,VALID,32,VALID,0.784766,
2008-10-03, 01:05:05,VALID,1005.2,VALID,0,VALID,91.6839,VALID,0,VALID,24.5814,VALID,30,VALID,1.3543,
2008-10-03, 01:06:05,VALID,1005.2,VALID,0,VALID,91.7144,VALID,0,VALID,24.599,VALID,43,VALID,0.705859,
2008-10-03, 01:07:05,VALID,1005.21,VALID,0,VALID,91.6991,VALID,0,VALID,24.6185,VALID,66,VALID,0.929297,
2008-10-03, 01:08:05,VALID,1005.18,VALID,0,VALID,91.6686,VALID,0,VALID,24.6398,VALID,34,VALID,1.57031,
2008-10-03, 01:09:05,VALID,1005.18,VALID,0,VALID,91.4398,VALID,0,VALID,24.6556,VALID,85,VALID,1.36641,
2008-10-03, 01:10:05,VALID,1005.17,VALID,0,VALID,91.4092,VALID,0,VALID,24.6964,VALID,18,VALID,0.503125,
2008-10-03, 01:11:05,VALID,1005.11,VALID,0,VALID,91.2567,VALID,0,VALID,24.7159,VALID,33,VALID,1.17227,
2008-10-03, 01:12:05,VALID,1005.04,VALID,0,VALID,91.0125,VALID,0,VALID,24.6945,VALID,38,VALID,0.753516,
2008-10-03, 01:13:05,VALID,1005.01,VALID,0,VALID,90.8752,VALID,0,VALID,24.7548,VALID,85,VALID,0.833594,
2008-10-03, 01:14:05,VALID,1004.96,VALID,0,VALID,90.7226,VALID,0,VALID,24.7743,VALID,24,VALID,0.782422,
2008-10-03, 01:15:05,VALID,1004.95,VALID,0,VALID,90.6769,VALID,0,VALID,24.7937,VALID,21,VALID,0.898047,
2008-10-03, 01:16:05,VALID,1004.89,VALID,0,VALID,90.2802,VALID,0,VALID,24.7743,VALID,26,VALID,1.50156,
2008-10-03, 01:17:05,VALID,1004.85,VALID,0,VALID,90.2725,VALID,0,VALID,24.7743,VALID,17,VALID,0.891797,
2008-10-03, 01:18:05,VALID,1004.83,VALID,0,VALID,89.9292,VALID,0,VALID,24.7548,VALID,26,VALID,1.8832,
2008-10-03, 01:19:05,VALID,1004.84,VALID,0,VALID,90.0589,VALID,0,VALID,24.7529,VALID,29,VALID,1.08789,
2008-10-03, 01:20:05,VALID,1004.86,VALID,0,VALID,89.9064,VALID,0,VALID,24.7743,VALID,36,VALID,1.51523,
2008-10-03, 01:21:05,VALID,1004.86,VALID,0,VALID,89.3647,VALID,0,VALID,24.7743,VALID,22,VALID,1.94219,
2008-10-03, 01:22:05,VALID,1004.89,VALID,0,VALID,89.2884,VALID,0,VALID,24.7937,VALID,44,VALID,1.675,
2008-10-03, 01:23:05,VALID,1004.89,VALID,0,VALID,89.4639,VALID,0,VALID,24.8132,VALID,37,VALID,0.578516,
2008-10-03, 01:24:05,VALID,1004.96,VALID,0,VALID,89.2198,VALID,0,VALID,24.8132,VALID,36,VALID,1.20664,
2008-10-03, 01:25:05,VALID,1004.94,VALID,0,VALID,89.0748,VALID,0.100563,VALID,24.8132,VALID,31,VALID,1.88398,
2008-10-03, 01:26:05,VALID,1004.98,VALID,0,VALID,89.3952,VALID,0,VALID,24.7919,VALID,54,VALID,1.02773,
2008-10-03, 01:27:05,VALID,1005,VALID,0,VALID,89.3723,VALID,0.100563,VALID,24.7724,VALID,36,VALID,1.82187,
2008-10-03, 01:28:05,VALID,1004.99,VALID,0,VALID,88.8765,VALID,0,VALID,24.7937,VALID,26,VALID,2.63086,
2008-10-03, 01:29:05,VALID,1004.96,VALID,0,VALID,88.9299,VALID,0,VALID,24.8132,VALID,82,VALID,2.16484,
2008-10-03, 01:30:05,VALID,1004.94,VALID,0,VALID,89.38,VALID,0,VALID,24.8132,VALID,40,VALID,0.886719,
2008-10-03, 01:31:05,VALID,1004.96,VALID,0,VALID,89.7996,VALID,0,VALID,24.7529,VALID,60,VALID,1.28516,
2008-10-03, 01:32:05,VALID,1004.92,VALID,0,VALID,90.0894,VALID,0,VALID,24.6964,VALID,32,VALID,2.07773,
2008-10-03, 01:33:05,VALID,1004.95,VALID,0,VALID,90.4633,VALID,0,VALID,24.7177,VALID,56,VALID,1.66133,
2008-10-03, 01:34:05,VALID,1004.95,VALID,0,VALID,90.6616,VALID,0,VALID,24.6769,VALID,40,VALID,1.37969,
2008-10-03, 01:35:05,VALID,1004.95,VALID,0,VALID,90.8523,VALID,0.100563,VALID,24.638,VALID,27,VALID,1.14102,
2008-10-03, 01:36:05,VALID,1004.92,VALID,0,VALID,90.9057,VALID,0,VALID,24.6185,VALID,36,VALID,0.808203,
2008-10-03, 01:37:05,VALID,1004.91,VALID,0,VALID,90.9744,VALID,0,VALID,24.599,VALID,24,VALID,0.823047,
2008-10-03, 01:38:05,VALID,1004.89,VALID,0,VALID,90.3641,VALID,0.100563,VALID,24.5388,VALID,33,VALID,2.29766,
2008-10-03, 01:39:05,VALID,1004.92,VALID,0,VALID,89.9521,VALID,0,VALID,24.562,VALID,25,VALID,2.81992,
2008-10-03, 01:40:05,VALID,1004.92,VALID,0,VALID,89.708,VALID,0,VALID,24.6204,VALID,20,VALID,2.20039,
2008-10-03, 01:41:05,VALID,1004.92,VALID,0,VALID,89.7233,VALID,0,VALID,24.599,VALID,28,VALID,1.14648,
2008-10-03, 01:42:05,VALID,1004.96,VALID,0,VALID,89.4486,VALID,0,VALID,24.599,VALID,48,VALID,1.93789,
2008-10-03, 01:43:05,VALID,1004.98,VALID,0,VALID,89.4868,VALID,0,VALID,24.5814,VALID,43,VALID,1.27422,
2008-10-03, 01:44:05,VALID,1005,VALID,0,VALID,89.2655,VALID,0,VALID,24.562,VALID,55,VALID,0.893359,
2008-10-03, 01:45:05,VALID,1005.02,VALID,0,VALID,89.5783,VALID,0,VALID,24.562,VALID,69,VALID,0.616797,
2008-10-03, 01:46:05,VALID,1005.02,VALID,0,VALID,89.4563,VALID,0,VALID,24.523,VALID,73,VALID,1.73203,
2008-10-03, 01:47:05,VALID,1005.06,VALID,0,VALID,89.6241,VALID,0,VALID,24.5035,VALID,60,VALID,0.889844,
2008-10-03, 01:48:05,VALID,1005.07,VALID,0,VALID,89.6012,VALID,0,VALID,24.5035,VALID,69,VALID,1.27305,
2008-10-03, 01:49:05,VALID,1005.07,VALID,0,VALID,89.8453,VALID,0,VALID,24.4646,VALID,54,VALID,0.546484,
2008-10-03, 01:50:05,VALID,1005.02,VALID,0,VALID,90.0894,VALID,0,VALID,24.4257,VALID,27,VALID,1.10273,
2008-10-03, 01:51:05,VALID,1004.99,VALID,0,VALID,89.853,VALID,0,VALID,24.3867,VALID,40,VALID,1.61953,
2008-10-03, 01:52:05,VALID,1004.99,VALID,0,VALID,89.8453,VALID,0,VALID,24.4062,VALID,39,VALID,2.10664,
2008-10-03, 01:53:05,VALID,1004.99,VALID,0,VALID,89.914,VALID,0,VALID,24.4062,VALID,34,VALID,1.43086,
2008-10-03, 01:54:05,VALID,1004.96,VALID,0,VALID,90.181,VALID,0,VALID,24.4062,VALID,41,VALID,2.57852,
2008-10-03, 01:55:05,VALID,1004.94,VALID,0,VALID,90.3107,VALID,0,VALID,24.3849,VALID,48,VALID,1.53125,
2008-10-03, 01:56:05,VALID,1004.92,VALID,0,VALID,90.6616,VALID,0,VALID,24.3654,VALID,11,VALID,1.55781,
2008-10-03, 01:57:05,VALID,1004.91,VALID,0,VALID,90.6921,VALID,0,VALID,24.3654,VALID,27,VALID,2.33398,
2008-10-03, 01:58:05,VALID,1004.89,VALID,0,VALID,90.9363,VALID,0,VALID,24.3459,VALID,23,VALID,1.26055,
2008-10-03, 01:59:05,VALID,1004.85,VALID,0,VALID,90.9897,VALID,0,VALID,24.4062,VALID,35,VALID,2.97109,
2008-10-03, 02:00:05,VALID,1004.82,VALID,0,VALID,90.9286,VALID,0,VALID,24.4257,VALID,35,VALID,1.95039,
2008-10-03, 02:01:05,VALID,1004.75,VALID,0,VALID,91.0049,VALID,0,VALID,24.4238,VALID,28,VALID,2.6582,
2008-10-03, 02:02:05,VALID,1004.71,VALID,0,VALID,91.0049,VALID,0,VALID,24.4841,VALID,352,VALID,2.0918,
2008-10-03, 02:03:05,VALID,1004.68,VALID,0,VALID,91.1117,VALID,0,VALID,24.4822,VALID,9,VALID,1.05938,
2008-10-03, 02:04:05,VALID,1004.64,VALID,0,VALID,90.9973,VALID,0,VALID,24.4822,VALID,348,VALID,1.26836,
2008-10-03, 02:05:05,VALID,1004.66,VALID,0,VALID,91.0659,VALID,0,VALID,24.523,VALID,349,VALID,1.03047,
2008-10-03, 02:06:05,VALID,1004.69,VALID,0,VALID,91.1041,VALID,0,VALID,24.5017,VALID,25,VALID,1.0625,
2008-10-03, 02:07:05,VALID,1004.73,VALID,0,VALID,91.1499,VALID,0,VALID,24.5035,VALID,33,VALID,1.16016,
2008-10-03, 02:08:05,VALID,1004.74,VALID,0,VALID,90.3336,VALID,0,VALID,24.4628,VALID,10,VALID,1.77656,
2008-10-03, 02:09:05,VALID,1004.79,VALID,0,VALID,90.5777,VALID,0,VALID,24.5017,VALID,9,VALID,1.13398,
2008-10-03, 02:10:05,VALID,1004.81,VALID,0,VALID,90.0818,VALID,0,VALID,24.5406,VALID,17,VALID,1.64883,
2008-10-03, 02:11:05,VALID,1004.87,VALID,0,VALID,89.853,VALID,0,VALID,24.5814,VALID,23,VALID,1.57266,
2008-10-03, 02:12:05,VALID,1004.9,VALID,0,VALID,89.5859,VALID,0,VALID,24.5601,VALID,30,VALID,1.86406,
2008-10-03, 02:13:05,VALID,1004.92,VALID,0,VALID,89.8072,VALID,0,VALID,24.5796,VALID,20,VALID,1.4875,
2008-10-03, 02:14:05,VALID,1004.93,VALID,0,VALID,89.6012,VALID,0,VALID,24.562,VALID,40,VALID,1.93828,
2008-10-03, 02:15:05,VALID,1004.92,VALID,0,VALID,89.0519,VALID,0,VALID,24.6009,VALID,11,VALID,2.79609,
2008-10-03, 02:16:05,VALID,1004.93,VALID,0,VALID,89.235,VALID,0,VALID,24.638,VALID,34,VALID,1.88516,
2008-10-03, 02:17:05,VALID,1004.93,VALID,0,VALID,89.1435,VALID,0,VALID,24.6398,VALID,343,VALID,1.76992,
2008-10-03, 02:18:05,VALID,1004.87,VALID,0,VALID,89.1358,VALID,0,VALID,24.6204,VALID,6,VALID,2.64648,
2008-10-03, 02:19:05,VALID,1004.82,VALID,0,VALID,89.0672,VALID,0,VALID,24.6398,VALID,25,VALID,1.72812,
2008-10-03, 02:20:05,VALID,1004.78,VALID,0,VALID,89.0061,VALID,0,VALID,24.6398,VALID,32,VALID,2.14609,
2008-10-03, 02:21:05,VALID,1004.76,VALID,0,VALID,89.2426,VALID,0,VALID,24.6185,VALID,2,VALID,1.55273,
2008-10-03, 02:22:05,VALID,1004.69,VALID,0,VALID,89.3494,VALID,0,VALID,24.599,VALID,14,VALID,1.88008,
2008-10-03, 02:23:05,VALID,1004.67,VALID,0,VALID,89.3037,VALID,0,VALID,24.6398,VALID,16,VALID,1.09531,
2008-10-03, 02:24:05,VALID,1004.65,VALID,0,VALID,89.3266,VALID,0,VALID,24.6398,VALID,20,VALID,1.78516,
2008-10-03, 02:25:05,VALID,1004.67,VALID,0,VALID,89.4944,VALID,0,VALID,24.6185,VALID,348,VALID,1.27383,
2008-10-03, 02:26:05,VALID,1004.62,VALID,0,VALID,89.2274,VALID,0,VALID,24.599,VALID,349,VALID,1.3418,
2008-10-03, 02:27:05,VALID,1004.64,VALID,0,VALID,89.1282,VALID,0,VALID,24.6788,VALID,354,VALID,1.55391,
2008-10-03, 02:28:05,VALID,1004.66,VALID,0,VALID,88.6857,VALID,0,VALID,24.7177,VALID,354,VALID,0.947266,
2008-10-03, 02:29:05,VALID,1004.64,VALID,0,VALID,88.6094,VALID,0,VALID,24.7159,VALID,25,VALID,2.58086,
2008-10-03, 02:30:05,VALID,1004.71,VALID,0,VALID,88.701,VALID,0,VALID,24.7548,VALID,3,VALID,1.23906,
2008-10-03, 02:31:05,VALID,1004.73,VALID,0,VALID,88.7773,VALID,0,VALID,24.7761,VALID,360,VALID,1.18555,
2008-10-03, 02:32:05,VALID,1004.74,VALID,0,VALID,88.6476,VALID,0,VALID,24.7159,VALID,354,VALID,0.975391,
2008-10-03, 02:33:05,VALID,1004.74,VALID,0,VALID,88.4416,VALID,0,VALID,24.7353,VALID,351,VALID,1.57656,
2008-10-03, 02:34:04,VALID,1004.77,VALID,0,VALID,88.5179,VALID,0,VALID,24.7353,VALID,18,VALID,2.04961,
2008-10-03, 02:35:04,VALID,1004.74,VALID,0,VALID,88.64,VALID,0,VALID,24.7761,VALID,7,VALID,1.24297,
2008-10-03, 02:36:04,VALID,1004.77,VALID,0,VALID,88.6552,VALID,0,VALID,24.7548,VALID,34,VALID,1.94648,
2008-10-03, 02:37:04,VALID,1004.78,VALID,0,VALID,88.7239,VALID,0,VALID,24.7761,VALID,15,VALID,1.85,
2008-10-03, 02:38:04,VALID,1004.75,VALID,0,VALID,88.8612,VALID,0,VALID,24.7743,VALID,11,VALID,0.894531,
2008-10-03, 02:39:04,VALID,1004.75,VALID,0,VALID,88.5484,VALID,0.100563,VALID,24.7743,VALID,20,VALID,1.37617,
2008-10-03, 02:40:04,VALID,1004.76,VALID,0,VALID,88.7468,VALID,0.100563,VALID,24.7919,VALID,39,VALID,1.00469,
2008-10-03, 02:41:04,VALID,1004.8,VALID,0,VALID,88.9299,VALID,0.100563,VALID,24.7548,VALID,23,VALID,1.61953,
2008-10-03, 02:42:04,VALID,1004.83,VALID,0,VALID,89.1282,VALID,0.100563,VALID,24.714,VALID,21,VALID,0.973828,
2008-10-03, 02:43:04,VALID,1004.84,VALID,0,VALID,89.2808,VALID,0.100563,VALID,24.7159,VALID,19,VALID,1.36016,
2008-10-03, 02:44:04,VALID,1004.87,VALID,0,VALID,89.6088,VALID,0.100563,VALID,24.7353,VALID,66,VALID,0.761719,
2008-10-03, 02:45:04,VALID,1004.91,VALID,0,VALID,89.6012,VALID,0.100563,VALID,24.675,VALID,352,VALID,0.975391,
2008-10-03, 02:46:04,VALID,1004.94,VALID,0,VALID,89.9979,VALID,0,VALID,24.6556,VALID,47,VALID,0.383984,
2008-10-03, 02:47:04,VALID,1004.9,VALID,0,VALID,89.9826,VALID,0.100563,VALID,24.6574,VALID,11,VALID,1.06016,
2008-10-03, 02:48:04,VALID,1004.97,VALID,0,VALID,90.2191,VALID,0.100563,VALID,24.6166,VALID,16,VALID,1.05586,
2008-10-03, 02:49:04,VALID,1005,VALID,0,VALID,90.2039,VALID,0.100563,VALID,24.638,VALID,24,VALID,1.82813,
2008-10-03, 02:50:04,VALID,1005.05,VALID,0,VALID,90.2191,VALID,0,VALID,24.638,VALID,33,VALID,1.9,
2008-10-03, 02:51:04,VALID,1005.04,VALID,0,VALID,90.242,VALID,0.100563,VALID,24.6556,VALID,59,VALID,0.666016,
2008-10-03, 02:52:04,VALID,1005.09,VALID,0,VALID,90.2649,VALID,0,VALID,24.6361,VALID,54,VALID,1.01875,
2008-10-03, 02:53:04,VALID,1005.07,VALID,0,VALID,90.0666,VALID,0.100563,VALID,24.6556,VALID,37,VALID,1.82227,
2008-10-03, 02:54:04,VALID,1005.1,VALID,0,VALID,89.8072,VALID,0,VALID,24.7177,VALID,49,VALID,1.40859,
2008-10-03, 02:55:04,VALID,1005.13,VALID,0,VALID,88.8917,VALID,0,VALID,24.7761,VALID,28,VALID,1.37734,
2008-10-03, 02:56:04,VALID,1005.13,VALID,0,VALID,88.4111,VALID,0,VALID,24.8132,VALID,66,VALID,1.29102,
2008-10-03, 02:57:04,VALID,1005.13,VALID,0,VALID,87.5567,VALID,0,VALID,24.8522,VALID,65,VALID,1.29141,
2008-10-03, 02:58:04,VALID,1005.17,VALID,0,VALID,87.1676,VALID,0,VALID,24.8716,VALID,27,VALID,1.0457,
2008-10-03, 02:59:04,VALID,1005.18,VALID,0,VALID,87.1294,VALID,0,VALID,24.9125,VALID,58,VALID,1.13477,
2008-10-03, 03:00:04,VALID,1005.2,VALID,0,VALID,87.0837,VALID,0,VALID,24.8911,VALID,358,VALID,0.781641,
2008-10-03, 03:01:04,VALID,1005.14,VALID,0,VALID,86.5802,VALID,0,VALID,24.8716,VALID,24,VALID,0.658984,
2008-10-03, 03:02:04,VALID,1005.17,VALID,0,VALID,86.1148,VALID,0,VALID,24.9125,VALID,44,VALID,0.85625,
2008-10-03, 03:03:04,VALID,1005.16,VALID,0,VALID,85.6189,VALID,0,VALID,24.93,VALID,14,VALID,0.967578,
2008-10-03, 03:04:04,VALID,1005.15,VALID,0,VALID,85.5198,VALID,0,VALID,24.969,VALID,8,VALID,0.695703,
2008-10-03, 03:05:04,VALID,1005.13,VALID,0,VALID,85.4435,VALID,0,VALID,25.0098,VALID,66,VALID,0.573828,
2008-10-03, 03:06:04,VALID,1005.14,VALID,0,VALID,85.8249,VALID,0,VALID,25.0079,VALID,41,VALID,0.504687,
2008-10-03, 03:07:04,VALID,1005.16,VALID,0,VALID,85.2985,VALID,0,VALID,25.0079,VALID,69,VALID,0.452344,
2008-10-03, 03:08:04,VALID,1005.18,VALID,0,VALID,84.1237,VALID,0,VALID,25.0079,VALID,28,VALID,1.6668,
2008-10-03, 03:09:04,VALID,1005.24,VALID,0,VALID,83.4218,VALID,0,VALID,25.0839,VALID,22,VALID,1.91875,
2008-10-03, 03:10:04,VALID,1005.24,VALID,0,VALID,84.116,VALID,0,VALID,25.1442,VALID,38,VALID,0.822266,
2008-10-03, 03:11:04,VALID,1005.25,VALID,0.5,VALID,84.1466,VALID,0,VALID,25.1053,VALID,65,VALID,0.954687,
2008-10-03, 03:12:04,VALID,1005.24,VALID,0,VALID,82.8954,VALID,0,VALID,25.1248,VALID,352,VALID,0.89375,
2008-10-03, 03:13:04,VALID,1005.22,VALID,0,VALID,83.3226,VALID,0,VALID,25.1851,VALID,33,VALID,0.63125,
2008-10-03, 03:14:04,VALID,1005.21,VALID,0,VALID,83.3379,VALID,0,VALID,25.1656,VALID,28,VALID,1.05352,
2008-10-03, 03:15:04,VALID,1005.22,VALID,0,VALID,83.3913,VALID,0,VALID,25.1461,VALID,19,VALID,1.6207,
2008-10-03, 03:16:04,VALID,1005.23,VALID,0,VALID,83.6125,VALID,0,VALID,25.1442,VALID,41,VALID,1.33164,
2008-10-03, 03:17:04,VALID,1005.22,VALID,0,VALID,83.582,VALID,0,VALID,25.1832,VALID,31,VALID,0.930469,
2008-10-03, 03:18:04,VALID,1005.23,VALID,0,VALID,84.2915,VALID,0,VALID,25.2046,VALID,53,VALID,1.27539,
2008-10-03, 03:19:04,VALID,1005.28,VALID,0,VALID,84.6501,VALID,0,VALID,25.1832,VALID,27,VALID,1.61602,
2008-10-03, 03:20:04,VALID,1005.27,VALID,0,VALID,84.9476,VALID,0,VALID,25.2046,VALID,17,VALID,1.59766,
2008-10-03, 03:21:04,VALID,1005.28,VALID,0,VALID,86.0919,VALID,0,VALID,25.2027,VALID,36,VALID,1.97344,
2008-10-03, 03:22:04,VALID,1005.25,VALID,0,VALID,86.1453,VALID,0,VALID,25.2027,VALID,32,VALID,1.94687,
2008-10-03, 03:23:04,VALID,1005.27,VALID,0,VALID,86.6488,VALID,0,VALID,25.1637,VALID,21,VALID,2.26016,
2008-10-03, 03:24:04,VALID,1005.24,VALID,0,VALID,87.0455,VALID,0.100563,VALID,25.1442,VALID,15,VALID,2.30586,
2008-10-03, 03:25:04,VALID,1005.25,VALID,0,VALID,87.2515,VALID,0,VALID,25.1034,VALID,32,VALID,1.87773,
2008-10-03, 03:26:04,VALID,1005.23,VALID,0,VALID,87.076,VALID,0,VALID,25.1053,VALID,24,VALID,2.38438,
2008-10-03, 03:27:04,VALID,1005.25,VALID,0,VALID,87.3202,VALID,0,VALID,25.0858,VALID,41,VALID,1.71055,
2008-10-03, 03:28:04,VALID,1005.22,VALID,0,VALID,87.4117,VALID,0,VALID,25.0644,VALID,25,VALID,2.16914,
2008-10-03, 03:29:04,VALID,1005.22,VALID,0,VALID,87.549,VALID,0,VALID,25.0877,VALID,15,VALID,1.2082,
2008-10-03, 03:30:04,VALID,1005.2,VALID,0,VALID,87.0989,VALID,0,VALID,25.0274,VALID,19,VALID,1.97578,
2008-10-03, 03:31:04,VALID,1005.19,VALID,0,VALID,86.5191,VALID,0,VALID,25.0274,VALID,52,VALID,2.23633,
2008-10-03, 03:32:04,VALID,1005.16,VALID,0,VALID,86.7404,VALID,0,VALID,25.0469,VALID,25,VALID,1.74141,
2008-10-03, 03:33:04,VALID,1005.21,VALID,0,VALID,86.9998,VALID,0,VALID,25.0274,VALID,24,VALID,1.675,
2008-10-03, 03:34:04,VALID,1005.21,VALID,0,VALID,87.0303,VALID,0,VALID,25.0255,VALID,26,VALID,1.77305,
2008-10-03, 03:35:04,VALID,1005.25,VALID,0,VALID,87.2896,VALID,0,VALID,25.0469,VALID,15,VALID,1.34414,
2008-10-03, 03:36:04,VALID,1005.22,VALID,0,VALID,86.5878,VALID,0.100563,VALID,25.006,VALID,35,VALID,2.36562,
2008-10-03, 03:37:04,VALID,1005.23,VALID,0,VALID,86.2903,VALID,0,VALID,25.0469,VALID,4,VALID,1.35469,
2008-10-03, 03:38:04,VALID,1005.27,VALID,0,VALID,86.3818,VALID,0,VALID,25.0469,VALID,34,VALID,2.15742,
2008-10-03, 03:39:04,VALID,1005.26,VALID,0,VALID,86.7099,VALID,0,VALID,25.0488,VALID,19,VALID,2.18203,
2008-10-03, 03:40:04,VALID,1005.2,VALID,0,VALID,86.748,VALID,0,VALID,25.0079,VALID,353,VALID,1.7082,
2008-10-03, 03:41:04,VALID,1005.22,VALID,0,VALID,86.6641,VALID,0,VALID,24.969,VALID,10,VALID,1.12383,
2008-10-03, 03:42:04,VALID,1005.24,VALID,0,VALID,85.9699,VALID,0,VALID,24.9495,VALID,49,VALID,1.18398,
2008-10-03, 03:43:04,VALID,1005.26,VALID,0,VALID,85.329,VALID,0,VALID,24.969,VALID,15,VALID,1.17031,
2008-10-03, 03:44:04,VALID,1005.28,VALID,0,VALID,85.2222,VALID,0,VALID,25.0098,VALID,18,VALID,1.09609,
2008-10-03, 03:45:04,VALID,1005.33,VALID,0,VALID,84.1237,VALID,0,VALID,25.0098,VALID,33,VALID,1.70977,
2008-10-03, 03:46:04,VALID,1005.35,VALID,0,VALID,84.2686,VALID,0,VALID,25.0293,VALID,27,VALID,1.81562,